Change the Weather History Date:

Saturday, July 27, 2013

  Actual Average (KCLL) Record (KCLL)
Temperature  
Mean Temperature 86 °F 85 °F  
Max Temperature 92 °F 96 °F 104 °F (1944)
Min Temperature 82 °F 75 °F 67 °F (1911)
Degree Days  
Heating Degree Days 0 0  
Month to date heating degree days 0  
Since 1 June heating degree days 0  
Since 1 July heating degree days 0  
Cooling Degree Days 22 20  
Month to date cooling degree days 529  
Year to date cooling degree days 1633  
Since 1 June cooling degree days 1045  
Growing Degree Days 36 (Base 50)    
Moisture  
Dew Point 73 °F    
Average Humidity 67    
Maximum Humidity 79    
Minimum Humidity 49    
Precipitation  
Precipitation 0.00 in 0.06 in 1.32 in (1971)
Month to date precipitation 1.89  
Year to date precipitation 22.59  
Sea Level Pressure  
Sea Level Pressure 29.94 in    
Wind  
Wind Speed 7 mph (WNW)    
Max Wind Speed 13 mph    
Max Gust Speed 17 mph    
Visibility 10 miles    
Events Rain    
T = Trace of Precipitation, MM = Missing Value Source: NWS Daily Summary

Daily Weather History Graph

Daily Weather History Graph

Search for Another Location

Airport or City:

Trip Planner

Search our weather history database for the weather conditions in past years. The results will help you decide how hot, cold, wet, or windy it might be!

Date:

Astronomy

Jul. 27, 2013 Rise Set
Actual Time 6:41 AM CDT 8:22 PM CDT
Civil Twilight 6:14 AM CDT 8:48 PM CDT
Nautical Twilight 5:43 AM CDT 9:20 PM CDT
Astronomical Twilight 5:10 AM CDT 9:53 PM CDT
Moon 11:41 PM CDT (7/27) 11:53 AM CDT (7/27)
Length of Visible Light 14h 33m
Length of Day
13h 41m
Waning Gibbous, 70% of the Moon is Illuminated
Jul 27
Waning Gibbous
Jul 29
Last Quarter
Aug 6
New
Aug 14
First Quarter
Aug 20
Full

Hourly Weather History & Observations

Time (CDT) Temp. Heat Index Dew Point Humidity Pressure Visibility Wind Dir Wind Speed Gust Speed Precip Events Conditions
12:15 AM 84.6 °F 92.8 °F 75.2 °F 73% 29.95 in 10.0 mi SSW 12.7 mph 17.3 mph N/A   Clear
12:35 AM 84.4 °F 92.7 °F 75.2 °F 74% 29.97 in 10.0 mi SSW 10.4 mph - N/A   Clear
12:55 AM 84.4 °F 92.7 °F 75.2 °F 74% 29.98 in 10.0 mi SW 4.6 mph - N/A   Scattered Clouds
1:15 AM 84.2 °F 92.3 °F 75.2 °F 74% 29.99 in 10.0 mi WSW 6.9 mph - N/A   Scattered Clouds
1:35 AM 84.2 °F 92.3 °F 75.2 °F 74% 29.98 in 10.0 mi SW 8.1 mph - N/A   Scattered Clouds
1:55 AM 84.2 °F 92.3 °F 75.2 °F 74% 29.97 in 10.0 mi SSW 8.1 mph - N/A   Scattered Clouds
2:15 AM 84.2 °F 92.3 °F 75.2 °F 74% 29.95 in 10.0 mi SSW 6.9 mph - N/A   Scattered Clouds
2:35 AM 83.8 °F 91.4 °F 74.8 °F 74% 29.94 in 10.0 mi SSW 6.9 mph - N/A   Clear
2:55 AM 84.0 °F 91.9 °F 74.8 °F 74% 29.94 in 10.0 mi SSW 8.1 mph - N/A   Clear
3:15 AM 83.8 °F 91.4 °F 74.7 °F 74% 29.94 in 10.0 mi SW 6.9 mph - N/A   Scattered Clouds
3:35 AM 83.5 °F 90.9 °F 74.8 °F 75% 29.94 in 10.0 mi SW 4.6 mph - N/A   Light Drizzle
3:55 AM 83.3 °F 90.5 °F 74.7 °F 75% 29.93 in 10.0 mi SSW 5.8 mph - N/A   Clear
4:15 AM 82.6 °F 89.4 °F 74.7 °F 77% 29.93 in 10.0 mi SSW 5.8 mph - N/A   Clear
4:35 AM 82.4 °F 89.0 °F 74.7 °F 77% 29.93 in 10.0 mi SSW 6.9 mph - N/A   Clear
4:55 AM 82.4 °F 89.0 °F 74.7 °F 77% 29.94 in 10.0 mi SW 6.9 mph - N/A   Scattered Clouds
5:15 AM 82.8 °F 89.5 °F 74.5 °F 76% 29.94 in 10.0 mi SW 5.8 mph - N/A   Scattered Clouds
5:35 AM 82.8 °F 89.5 °F 74.5 °F 76% 29.94 in 10.0 mi SW 4.6 mph - N/A   Scattered Clouds
5:55 AM 82.6 °F 89.1 °F 74.5 °F 76% 29.94 in 10.0 mi SW 3.5 mph - N/A   Scattered Clouds
6:15 AM 82.6 °F 89.4 °F 74.7 °F 77% 29.95 in 10.0 mi SW 4.6 mph - N/A   Mostly Cloudy
6:35 AM 82.4 °F 89.0 °F 74.7 °F 77% 29.95 in 10.0 mi SW 3.5 mph - N/A   Mostly Cloudy
6:55 AM 82.4 °F 89.2 °F 75.0 °F 78% 29.95 in 10.0 mi SW 3.5 mph - N/A   Scattered Clouds
7:15 AM 82.4 °F 89.5 °F 75.2 °F 79% 29.95 in 10.0 mi Calm Calm - N/A   Mostly Cloudy
7:35 AM 82.4 °F 89.5 °F 75.2 °F 79% 29.96 in 10.0 mi WSW 3.5 mph - N/A   Scattered Clouds
7:55 AM 82.8 °F 90.1 °F 75.2 °F 78% 29.97 in 10.0 mi West 3.5 mph - N/A   Scattered Clouds
8:15 AM 83.7 °F 91.7 °F 75.2 °F 76% 29.97 in 10.0 mi SW 5.8 mph - N/A   Clear
8:35 AM 83.5 °F 91.2 °F 75.2 °F 76% 29.97 in 10.0 mi SW 5.8 mph - N/A   Clear
8:55 AM 84.2 °F 92.3 °F 75.2 °F 74% 29.96 in 10.0 mi WSW 3.5 mph - N/A   Clear
9:15 AM 84.7 °F 92.8 °F 74.8 °F 72% 29.96 in 10.0 mi WSW 8.1 mph - N/A   Scattered Clouds
9:35 AM 84.7 °F 92.8 °F 74.8 °F 72% 29.96 in 10.0 mi WSW 8.1 mph - N/A   Scattered Clouds
9:55 AM 85.1 °F 93.3 °F 74.7 °F 71% 29.96 in 10.0 mi WSW 9.2 mph - N/A   Mostly Cloudy
10:15 AM 85.8 °F 94.2 °F 74.7 °F 69% 29.95 in 10.0 mi West 6.9 mph - N/A   Mostly Cloudy
10:35 AM 86.4 °F 95.1 °F 74.5 °F 68% 29.95 in 10.0 mi West 11.5 mph - N/A   Mostly Cloudy
10:55 AM 86.0 °F 94.2 °F 74.3 °F 68% 29.96 in 10.0 mi West 9.2 mph - N/A   Overcast
11:15 AM 86.2 °F 94.6 °F 74.3 °F 68% 29.97 in 10.0 mi WNW 8.1 mph - N/A   Overcast
11:35 AM 86.0 °F 94.2 °F 74.3 °F 68% 29.97 in 10.0 mi NW 9.2 mph - N/A   Mostly Cloudy
11:55 AM 85.5 °F 93.4 °F 74.3 °F 69% 29.97 in 10.0 mi NNW 9.2 mph - N/A   Mostly Cloudy
12:15 PM 85.1 °F 92.9 °F 74.3 °F 70% 29.97 in 10.0 mi North 8.1 mph - N/A   Scattered Clouds
12:35 PM 85.3 °F 93.4 °F 74.3 °F 70% 29.97 in 10.0 mi North 4.6 mph - N/A   Mostly Cloudy
12:55 PM 86.4 °F 94.6 °F 74.3 °F 67% 29.97 in 10.0 mi North 5.8 mph - N/A   Mostly Cloudy
1:15 PM 85.5 °F 93.4 °F 74.3 °F 69% 29.97 in 10.0 mi NNW 9.2 mph - N/A Rain Rain
1:35 PM 84.0 °F 92.2 °F 75.4 °F 75% 29.97 in 7.0 mi NNE 5.8 mph - N/A   Mostly Cloudy
1:55 PM 85.8 °F 95.1 °F 75.4 °F 71% 29.96 in 10.0 mi Calm Calm - N/A   Scattered Clouds
2:15 PM 86.9 °F 95.4 °F 74.3 °F 66% 29.95 in 10.0 mi North 5.8 mph - N/A   Scattered Clouds
2:35 PM 86.4 °F 94.6 °F 74.3 °F 67% 29.95 in 10.0 mi NNE 3.5 mph - N/A   Mostly Cloudy
2:55 PM 88.0 °F 95.6 °F 73.2 °F 61% 29.94 in 10.0 mi North 10.4 mph - N/A   Mostly Cloudy
3:15 PM 89.2 °F 96.4 °F 72.1 °F 57% 29.94 in 10.0 mi NNE 6.9 mph - N/A   Scattered Clouds
3:35 PM 88.5 °F 94.9 °F 71.4 °F 57% 29.93 in 10.0 mi NNE 6.9 mph - N/A   Mostly Cloudy
3:55 PM 89.1 °F 95.0 °F 70.9 °F 55% 29.92 in 10.0 mi North 4.6 mph - N/A   Mostly Cloudy
4:15 PM 89.4 °F 95.8 °F 71.1 °F 55% 29.92 in 10.0 mi NNE 8.1 mph - N/A   Mostly Cloudy
4:35 PM 90.3 °F 96.7 °F 71.1 °F 53% 29.91 in 10.0 mi NNE 6.9 mph - N/A   Scattered Clouds
4:55 PM 89.8 °F 96.0 °F 70.9 °F 54% 29.90 in 10.0 mi North 8.1 mph - N/A   Scattered Clouds
5:15 PM 89.8 °F 95.6 °F 70.5 °F 53% 29.89 in 10.0 mi NNE 8.1 mph - N/A   Scattered Clouds
5:35 PM 91.2 °F 97.0 °F 70.2 °F 50% 29.89 in 10.0 mi NNE 5.8 mph - N/A   Scattered Clouds
5:55 PM 91.6 °F 97.7 °F 70.3 °F 50% 29.89 in 10.0 mi North 8.1 mph - N/A   Mostly Cloudy
6:15 PM 91.6 °F 97.2 °F 69.8 °F 49% 29.88 in 10.0 mi North 6.9 mph - N/A   Mostly Cloudy
6:35 PM 90.3 °F 95.2 °F 69.4 °F 50% 29.88 in 10.0 mi North 6.9 mph - N/A   Scattered Clouds
6:55 PM 90.0 °F 95.4 °F 70.3 °F 52% 29.87 in 10.0 mi ENE 6.9 mph - N/A   Mostly Cloudy
7:15 PM 89.1 °F 94.1 °F 70.0 °F 53% 29.88 in 10.0 mi NE 6.9 mph - N/A   Mostly Cloudy
7:35 PM 88.0 °F 92.9 °F 69.8 °F 55% 29.89 in 10.0 mi NE 9.2 mph - N/A   Scattered Clouds
7:55 PM 87.1 °F 91.6 °F 69.8 °F 56% 29.90 in 10.0 mi NE 6.9 mph - N/A   Scattered Clouds
8:15 PM 86.5 °F 91.0 °F 69.8 °F 57% 29.91 in 10.0 mi NE 4.6 mph - N/A   Clear
8:35 PM 86.0 °F 90.4 °F 69.4 °F 58% 29.92 in 10.0 mi NE 3.5 mph - N/A   Scattered Clouds
8:55 PM 85.1 °F 89.4 °F 69.6 °F 60% 29.92 in 10.0 mi Calm Calm - N/A   Scattered Clouds
9:15 PM 84.7 °F 89.1 °F 69.8 °F 61% 29.92 in 10.0 mi Calm Calm - N/A   Mostly Cloudy
9:35 PM 84.2 °F 88.4 °F 70.0 °F 62% 29.92 in 10.0 mi Calm Calm - N/A   Scattered Clouds
9:55 PM 84.2 °F 88.7 °F 70.2 °F 63% 29.93 in 10.0 mi Calm Calm - N/A   Clear
10:15 PM 83.3 °F 87.6 °F 70.3 °F 65% 29.93 in 10.0 mi Calm Calm - N/A   Scattered Clouds
10:35 PM 83.3 °F 87.6 °F 70.3 °F 65% 29.93 in 10.0 mi Calm Calm - N/A   Mostly Cloudy
10:55 PM 83.5 °F 87.7 °F 70.0 °F 64% 29.93 in 10.0 mi Calm Calm - N/A   Scattered Clouds
11:15 PM 83.3 °F 87.4 °F 70.0 °F 64% 29.93 in 10.0 mi Calm Calm - N/A   Mostly Cloudy
11:35 PM 82.9 °F 86.7 °F 69.8 °F 64% 29.93 in 10.0 mi NE 5.8 mph - N/A   Mostly Cloudy
11:55 PM 82.6 °F 86.6 °F 70.0 °F 66% 29.93 in 10.0 mi ENE 6.9 mph - N/A   Scattered Clouds